Virgo Phoenix — 3FMO8 — position and weather

sailwx.info

Track history (hours):
 
Tides and Currents Weather Stations Pressure Air Temp Water Temp Dewpoint Dewpoint Depression Visibility Wind Speed Wind Dir Waves Ship Positions

Virgo Phoenix

Last reported at 2014-Aug-31 19:06 UTC. Time now 2014-Sep-02 02:10 UTC.
Position N 30°59' E 122°32'.

Length 96 m; draft 6.7 m.

Type: Ship (hazmat cat B). MMSI: 370795000.

Date/timePositionNaut miles runAvg speedWind from/ knotsBaromVisibWave heightAir tempDewpointWater temp
2014-Aug-31 19:06N 30°59' E 122°32'4910.8
2014-Aug-31 14:32N 31°20' E 121°40'1111.2
2014-Aug-31 13:33N 31°26' E 121°29'1010.4
2014-Aug-31 12:33N 31°33' E 121°20'3013.5
2014-Aug-31 10:19N 31°53' E 120°53'912.1
2014-Aug-31 09:32N 32°01' E 120°47'1111.6
2014-Aug-31 08:33N 32°03' E 120°34'1211.8
2014-Aug-31 07:33N 31°59' E 120°21'1413.7
2014-Aug-31 06:33N 31°57' E 120°05'2 1.9
2014-Aug-31 05:28N 31°57' E 120°02'0 0.0
2014-Aug-31 04:22N 31°57' E 120°02'0 0.0
2014-Aug-31 03:34N 31°57' E 120°02'0 0.0
2014-Aug-31 02:16N 31°57' E 120°02'0 0.0
2014-Aug-31 01:27N 31°57' E 120°02'0 0.0
2014-Aug-31 00:21N 31°57' E 120°02'0 0.0
2014-Aug-30 23:28N 31°57' E 120°02'0 0.0
2014-Aug-30 22:28N 31°57' E 120°02'0 0.0
2014-Aug-30 21:33N 31°57' E 120°02'0 0.0
2014-Aug-30 20:27N 31°57' E 120°02'0 0.0
2014-Aug-30 19:22N 31°57' E 120°02'0 0.0
2014-Aug-30 18:22N 31°57' E 120°02'0 0.0
2014-Aug-30 17:21N 31°57' E 120°02'0 0.0
2014-Aug-30 16:33N 31°57' E 120°02'0 0.0
2014-Aug-30 15:22N 31°57' E 120°02'0 0.0
2014-Aug-30 14:28N 31°57' E 120°02'0 0.0
2014-Aug-30 13:22N 31°57' E 120°02'0 0.0
2014-Aug-30 12:27N 31°57' E 120°02'0 0.0
2014-Aug-30 11:09N 31°57' E 120°02'0 0.0
2014-Aug-30 10:28N 31°57' E 120°02'0 0.0
2014-Aug-30 09:28N 31°57' E 120°02'0 0.0
2014-Aug-30 08:28N 31°57' E 120°02'0 0.0
2014-Aug-30 07:15N 31°57' E 120°02'0 0.0
2014-Aug-30 06:27N 31°57' E 120°02'0 0.0
2014-Aug-30 05:27N 31°57' E 120°02'2 2.6
2014-Aug-30 04:33N 31°57' E 120°05'5 5.0
2014-Aug-30 03:33N 31°56' E 120°11'1110.6
2014-Aug-30 02:33N 31°58' E 120°23'3 3.1
2014-Aug-30 01:32N 31°58' E 120°27'0 0.0
2014-Aug-30 00:32N 31°58' E 120°27'0 0.0
2014-Aug-29 23:29N 31°58' E 120°27'0 0.0
2014-Aug-29 22:32N 31°58' E 120°27'0 0.0
2014-Aug-29 21:32N 31°58' E 120°27'0 0.0
2014-Aug-29 20:32N 31°58' E 120°27'0 0.0
2014-Aug-29 19:32N 31°58' E 120°27'0 0.0
2014-Aug-29 18:29N 31°58' E 120°27'0 0.1
2014-Aug-29 17:29N 31°58' E 120°27'0 0.0
2014-Aug-29 16:29N 31°58' E 120°27'0 0.0
2014-Aug-29 15:29N 31°58' E 120°27'0 0.0
2014-Aug-29 14:29N 31°58' E 120°27'0 0.0
2014-Aug-29 13:26N 31°58' E 120°27'0 0.0
2014-Aug-29 12:26N 31°58' E 120°27'0 0.0
2014-Aug-29 11:26N 31°58' E 120°27'0 0.0
2014-Aug-29 10:29N 31°58' E 120°27'2 1.4
2014-Aug-29 09:23N 31°60' E 120°27'0 0.0
2014-Aug-29 08:17N 31°60' E 120°27'0 0.0
2014-Aug-29 07:32N 31°60' E 120°27'0 0.0
2014-Aug-29 06:29N 31°60' E 120°27'0 0.0
2014-Aug-29 05:32N 31°60' E 120°27'0 0.0
2014-Aug-29 04:32N 31°60' E 120°27'0 0.0
2014-Aug-29 03:29N 31°60' E 120°27'0 0.0
2014-Aug-29 02:29N 31°60' E 120°27'0 0.0
2014-Aug-29 01:29N 31°60' E 120°27'4 4.6
2014-Aug-29 00:33N 32°01' E 120°32'2 1.4
2014-Aug-28 23:29N 32°01' E 120°34'0 0.0
2014-Aug-28 22:26N 32°01' E 120°34'0 0.1
2014-Aug-28 21:32N 32°01' E 120°34'0 0.0
2014-Aug-28 20:26N 32°01' E 120°34'0 0.1
2014-Aug-28 19:32N 32°01' E 120°34'0 0.0
2014-Aug-28 18:29N 32°01' E 120°34'0 0.1
2014-Aug-28 17:32N 32°01' E 120°34'0 0.1
2014-Aug-28 16:32N 32°01' E 120°34'0 0.1
2014-Aug-28 15:32N 32°01' E 120°34'0 0.0
2014-Aug-28 14:32N 32°01' E 120°34'0 0.1
2014-Aug-28 13:29N 32°01' E 120°34'0 0.0
2014-Aug-28 12:26N 32°01' E 120°34'0 0.0
2014-Aug-28 11:32N 32°01' E 120°34'5 4.6
2014-Aug-28 10:32N 31°60' E 120°39'1110.8
2014-Aug-28 09:33N 31°58' E 120°51'3112.6
2014-Aug-28 07:06N 31°36' E 121°17'712.9
2014-Aug-28 06:33N 31°31' E 121°23'1010.1
2014-Aug-28 05:33N 31°25' E 121°32'1010.1
2014-Aug-28 04:33N 31°20' E 121°42'3610.5
2014-Aug-28 01:09N 31°03' E 122°19'36 4.4
2014-Aug-27 17:05N 31°02' E 123°00'  
2014-Aug-24 15:05N 34°56' E 139°27'611.5
2014-Aug-24 14:34N 35°00' E 139°33'1212.3
2014-Aug-24 13:33N 35°08' E 139°44'1111.0
2014-Aug-24 12:33N 35°19' E 139°43'1211.6
2014-Aug-24 11:33N 35°29' E 139°51'1110.8
2014-Aug-24 10:34N 35°32' E 140°03'0 0.0
2014-Aug-24 09:28N 35°32' E 140°03'0 0.0
2014-Aug-24 08:31N 35°32' E 140°03'0 0.0
2014-Aug-24 07:28N 35°32' E 140°03'0 0.0
2014-Aug-24 06:28N 35°32' E 140°03'0 0.0
2014-Aug-24 05:28N 35°32' E 140°03'0 0.0
2014-Aug-24 04:25N 35°32' E 140°03'0 0.0
2014-Aug-24 03:31N 35°32' E 140°03'0 0.0
2014-Aug-24 02:31N 35°32' E 140°03'0 0.0
2014-Aug-24 01:31N 35°32' E 140°03'0 0.0
2014-Aug-24 00:28N 35°32' E 140°03'0 0.0
2014-Aug-23 23:31N 35°32' E 140°03'3 2.4
2014-Aug-23 22:28N 35°34' E 140°03'0 0.0
2014-Aug-23 21:31N 35°34' E 140°03'0 0.0
2014-Aug-23 20:31N 35°34' E 140°03'0 0.0
2014-Aug-23 19:22N 35°34' E 140°03'7 0.5
2014-Aug-23 03:33N 35°31' E 139°55'0 0.0
2014-Aug-23 02:33N 35°31' E 139°55'0 0.0
2014-Aug-23 01:33N 35°31' E 139°55'0 0.0
2014-Aug-23 00:33N 35°31' E 139°55'0 0.0
2014-Aug-22 23:33N 35°31' E 139°55'0 0.0
2014-Aug-22 22:30N 35°31' E 139°55'0 0.0
2014-Aug-22 21:33N 35°31' E 139°55'0 0.0
2014-Aug-22 20:33N 35°31' E 139°55'0 0.0
2014-Aug-22 19:33N 35°31' E 139°55'0 0.0
2014-Aug-22 18:33N 35°31' E 139°55'6 6.2
2014-Aug-22 17:33N 35°34' E 140°02'4 3.5
2014-Aug-22 16:33N 35°36' E 140°05'0 0.0
2014-Aug-22 15:33N 35°36' E 140°05'0 0.0
2014-Aug-22 14:27N 35°36' E 140°05'0 0.0
2014-Aug-22 13:33N 35°36' E 140°05'0 0.0
2014-Aug-22 12:33N 35°36' E 140°05'0 0.0
2014-Aug-22 11:33N 35°36' E 140°05'0 0.0
2014-Aug-22 10:33N 35°36' E 140°05'0 0.0
2014-Aug-22 09:33N 35°36' E 140°05'0 0.0
2014-Aug-22 08:33N 35°36' E 140°05'0 0.0
2014-Aug-22 07:33N 35°36' E 140°05'0 0.0
2014-Aug-22 06:33N 35°36' E 140°05'0 0.0
2014-Aug-22 05:33N 35°36' E 140°05'7 6.7
2014-Aug-22 04:33N 35°33' E 139°58'1 1.3
2014-Aug-22 03:32N 35°34' E 139°58'0 0.0
2014-Aug-22 02:29N 35°34' E 139°58'0 0.0
2014-Aug-22 01:32N 35°34' E 139°58'0 0.0
2014-Aug-22 00:32N 35°34' E 139°58'0 0.0
2014-Aug-21 23:32N 35°34' E 139°58'4 4.1
2014-Aug-21 22:33N 35°31' E 139°55'7 5.7
2014-Aug-21 21:17N 35°31' E 139°46'0 0.0
2014-Aug-21 20:32N 35°31' E 139°46'0 0.0
2014-Aug-21 19:32N 35°31' E 139°46'  
Track history (hours):
 
Tides and Currents Weather Stations Pressure Air Temp Water Temp Dewpoint Dewpoint Depression Visibility Wind Speed Wind Dir Waves Ship Positions

Virgo Phoenix

Last reported at 2014-Aug-31 19:06 UTC. Time now 2014-Sep-02 02:10 UTC.
Position N 30°59' E 122°32'.

Length 96 m; draft 6.7 m.

Type: Ship (hazmat cat B). MMSI: 370795000.

Date/timePositionNaut miles runAvg speedWind from/ knotsBaromVisibWave heightAir tempDewpointWater temp
2014-Aug-31 19:06N 30°59' E 122°32'4910.8
2014-Aug-31 14:32N 31°20' E 121°40'1111.2
2014-Aug-31 13:33N 31°26' E 121°29'1010.4
2014-Aug-31 12:33N 31°33' E 121°20'3013.5
2014-Aug-31 10:19N 31°53' E 120°53'912.1
2014-Aug-31 09:32N 32°01' E 120°47'1111.6
2014-Aug-31 08:33N 32°03' E 120°34'1211.8
2014-Aug-31 07:33N 31°59' E 120°21'1413.7
2014-Aug-31 06:33N 31°57' E 120°05'2 1.9
2014-Aug-31 05:28N 31°57' E 120°02'0 0.0
2014-Aug-31 04:22N 31°57' E 120°02'0 0.0
2014-Aug-31 03:34N 31°57' E 120°02'0 0.0
2014-Aug-31 02:16N 31°57' E 120°02'0 0.0
2014-Aug-31 01:27N 31°57' E 120°02'0 0.0
2014-Aug-31 00:21N 31°57' E 120°02'0 0.0
2014-Aug-30 23:28N 31°57' E 120°02'0 0.0
2014-Aug-30 22:28N 31°57' E 120°02'0 0.0
2014-Aug-30 21:33N 31°57' E 120°02'0 0.0
2014-Aug-30 20:27N 31°57' E 120°02'0 0.0
2014-Aug-30 19:22N 31°57' E 120°02'0 0.0
2014-Aug-30 18:22N 31°57' E 120°02'0 0.0
2014-Aug-30 17:21N 31°57' E 120°02'0 0.0
2014-Aug-30 16:33N 31°57' E 120°02'0 0.0
2014-Aug-30 15:22N 31°57' E 120°02'0 0.0
2014-Aug-30 14:28N 31°57' E 120°02'0 0.0
2014-Aug-30 13:22N 31°57' E 120°02'0 0.0
2014-Aug-30 12:27N 31°57' E 120°02'0 0.0
2014-Aug-30 11:09N 31°57' E 120°02'0 0.0
2014-Aug-30 10:28N 31°57' E 120°02'0 0.0
2014-Aug-30 09:28N 31°57' E 120°02'0 0.0
2014-Aug-30 08:28N 31°57' E 120°02'0 0.0
2014-Aug-30 07:15N 31°57' E 120°02'0 0.0
2014-Aug-30 06:27N 31°57' E 120°02'0 0.0
2014-Aug-30 05:27N 31°57' E 120°02'2 2.6
2014-Aug-30 04:33N 31°57' E 120°05'5 5.0
2014-Aug-30 03:33N 31°56' E 120°11'1110.6
2014-Aug-30 02:33N 31°58' E 120°23'3 3.1
2014-Aug-30 01:32N 31°58' E 120°27'0 0.0
2014-Aug-30 00:32N 31°58' E 120°27'0 0.0
2014-Aug-29 23:29N 31°58' E 120°27'0 0.0
2014-Aug-29 22:32N 31°58' E 120°27'0 0.0
2014-Aug-29 21:32N 31°58' E 120°27'0 0.0
2014-Aug-29 20:32N 31°58' E 120°27'0 0.0
2014-Aug-29 19:32N 31°58' E 120°27'0 0.0
2014-Aug-29 18:29N 31°58' E 120°27'0 0.1
2014-Aug-29 17:29N 31°58' E 120°27'0 0.0
2014-Aug-29 16:29N 31°58' E 120°27'0 0.0
2014-Aug-29 15:29N 31°58' E 120°27'0 0.0
2014-Aug-29 14:29N 31°58' E 120°27'0 0.0
2014-Aug-29 13:26N 31°58' E 120°27'0 0.0
2014-Aug-29 12:26N 31°58' E 120°27'0 0.0
2014-Aug-29 11:26N 31°58' E 120°27'0 0.0
2014-Aug-29 10:29N 31°58' E 120°27'2 1.4
2014-Aug-29 09:23N 31°60' E 120°27'0 0.0
2014-Aug-29 08:17N 31°60' E 120°27'0 0.0
2014-Aug-29 07:32N 31°60' E 120°27'0 0.0
2014-Aug-29 06:29N 31°60' E 120°27'0 0.0
2014-Aug-29 05:32N 31°60' E 120°27'0 0.0
2014-Aug-29 04:32N 31°60' E 120°27'0 0.0
2014-Aug-29 03:29N 31°60' E 120°27'0 0.0
2014-Aug-29 02:29N 31°60' E 120°27'0 0.0
2014-Aug-29 01:29N 31°60' E 120°27'4 4.6
2014-Aug-29 00:33N 32°01' E 120°32'2 1.4
2014-Aug-28 23:29N 32°01' E 120°34'0 0.0
2014-Aug-28 22:26N 32°01' E 120°34'0 0.1
2014-Aug-28 21:32N 32°01' E 120°34'0 0.0
2014-Aug-28 20:26N 32°01' E 120°34'0 0.1
2014-Aug-28 19:32N 32°01' E 120°34'0 0.0
2014-Aug-28 18:29N 32°01' E 120°34'0 0.1
2014-Aug-28 17:32N 32°01' E 120°34'0 0.1
2014-Aug-28 16:32N 32°01' E 120°34'0 0.1
2014-Aug-28 15:32N 32°01' E 120°34'0 0.0
2014-Aug-28 14:32N 32°01' E 120°34'0 0.1
2014-Aug-28 13:29N 32°01' E 120°34'0 0.0
2014-Aug-28 12:26N 32°01' E 120°34'0 0.0
2014-Aug-28 11:32N 32°01' E 120°34'5 4.6
2014-Aug-28 10:32N 31°60' E 120°39'1110.8
2014-Aug-28 09:33N 31°58' E 120°51'3112.6
2014-Aug-28 07:06N 31°36' E 121°17'712.9
2014-Aug-28 06:33N 31°31' E 121°23'1010.1
2014-Aug-28 05:33N 31°25' E 121°32'1010.1
2014-Aug-28 04:33N 31°20' E 121°42'3610.5
2014-Aug-28 01:09N 31°03' E 122°19'36 4.4
2014-Aug-27 17:05N 31°02' E 123°00'  
2014-Aug-24 15:05N 34°56' E 139°27'611.5
2014-Aug-24 14:34N 35°00' E 139°33'1212.3
2014-Aug-24 13:33N 35°08' E 139°44'1111.0
2014-Aug-24 12:33N 35°19' E 139°43'1211.6
2014-Aug-24 11:33N 35°29' E 139°51'1110.8
2014-Aug-24 10:34N 35°32' E 140°03'0 0.0
2014-Aug-24 09:28N 35°32' E 140°03'0 0.0
2014-Aug-24 08:31N 35°32' E 140°03'0 0.0
2014-Aug-24 07:28N 35°32' E 140°03'0 0.0
2014-Aug-24 06:28N 35°32' E 140°03'0 0.0
2014-Aug-24 05:28N 35°32' E 140°03'0 0.0
2014-Aug-24 04:25N 35°32' E 140°03'0 0.0
2014-Aug-24 03:31N 35°32' E 140°03'0 0.0
2014-Aug-24 02:31N 35°32' E 140°03'0 0.0
2014-Aug-24 01:31N 35°32' E 140°03'0 0.0
2014-Aug-24 00:28N 35°32' E 140°03'0 0.0
2014-Aug-23 23:31N 35°32' E 140°03'3 2.4
2014-Aug-23 22:28N 35°34' E 140°03'0 0.0
2014-Aug-23 21:31N 35°34' E 140°03'0 0.0
2014-Aug-23 20:31N 35°34' E 140°03'0 0.0
2014-Aug-23 19:22N 35°34' E 140°03'7 0.5
2014-Aug-23 03:33N 35°31' E 139°55'0 0.0
2014-Aug-23 02:33N 35°31' E 139°55'0 0.0
2014-Aug-23 01:33N 35°31' E 139°55'0 0.0
2014-Aug-23 00:33N 35°31' E 139°55'0 0.0
2014-Aug-22 23:33N 35°31' E 139°55'0 0.0
2014-Aug-22 22:30N 35°31' E 139°55'0 0.0
2014-Aug-22 21:33N 35°31' E 139°55'0 0.0
2014-Aug-22 20:33N 35°31' E 139°55'0 0.0
2014-Aug-22 19:33N 35°31' E 139°55'0 0.0
2014-Aug-22 18:33N 35°31' E 139°55'6 6.2
2014-Aug-22 17:33N 35°34' E 140°02'4 3.5
2014-Aug-22 16:33N 35°36' E 140°05'0 0.0
2014-Aug-22 15:33N 35°36' E 140°05'0 0.0
2014-Aug-22 14:27N 35°36' E 140°05'0 0.0
2014-Aug-22 13:33N 35°36' E 140°05'0 0.0
2014-Aug-22 12:33N 35°36' E 140°05'0 0.0
2014-Aug-22 11:33N 35°36' E 140°05'0 0.0
2014-Aug-22 10:33N 35°36' E 140°05'0 0.0
2014-Aug-22 09:33N 35°36' E 140°05'0 0.0
2014-Aug-22 08:33N 35°36' E 140°05'0 0.0
2014-Aug-22 07:33N 35°36' E 140°05'0 0.0
2014-Aug-22 06:33N 35°36' E 140°05'0 0.0
2014-Aug-22 05:33N 35°36' E 140°05'7 6.7
2014-Aug-22 04:33N 35°33' E 139°58'1 1.3
2014-Aug-22 03:32N 35°34' E 139°58'0 0.0
2014-Aug-22 02:29N 35°34' E 139°58'0 0.0
2014-Aug-22 01:32N 35°34' E 139°58'0 0.0
2014-Aug-22 00:32N 35°34' E 139°58'0 0.0
2014-Aug-21 23:32N 35°34' E 139°58'4 4.1
2014-Aug-21 22:33N 35°31' E 139°55'7 5.7
2014-Aug-21 21:17N 35°31' E 139°46'0 0.0
2014-Aug-21 20:32N 35°31' E 139°46'0 0.0
2014-Aug-21 19:32N 35°31' E 139°46'  

Dump ship's entire track history